Mullan Pass, ID

4:32 AM PDT on July 26, 2017 (GMT -0700)
Mullan Pass

Weather History for KMLP - November, 2013

Change the Weather History Date:

Saturday, November 2, 2013

  Actual Average (K3TH) Record (K3TH)
Temperature  
Mean Temperature 30 °F -  
Max Temperature 36 °F 45 °F 55 °F (1996)
Min Temperature 23 °F 31 °F 24 °F (1996)
Degree Days  
Heating Degree Days 35    
Moisture  
Dew Point 29 °F    
Average Humidity 95    
Maximum Humidity 100    
Minimum Humidity 79    
Precipitation  
Precipitation 0.72 in - - ()
Sea Level Pressure  
Sea Level Pressure 29.64 in    
Wind  
Wind Speed 10 mph (SSW)    
Max Wind Speed 18 mph    
Max Gust Speed 41 mph    
Visibility 3 miles    
Events Fog , Rain , Snow    
Averages and records for this station are not official NWS values.
T = Trace of Precipitation, MM = Missing Value Source: NWS Daily Summary

Daily Weather History Graph

Daily Weather History Graph

Search for Another Location

Airport or City:

Trip Planner

Search our weather history database for the weather conditions in past years. The results will help you decide how hot, cold, wet, or windy it might be!

Date:

Astronomy

Nov. 02, 2013 Rise Set
Actual Time 7:28 AM PDT 5:23 PM PDT
Civil Twilight 6:56 AM PDT 5:55 PM PDT
Nautical Twilight 6:19 AM PDT 6:32 PM PDT
Astronomical Twilight 5:44 AM PDT 7:07 PM PDT
Moon 6:27 AM PDT (11/2) 4:58 PM PDT (11/2)
Length of Visible Light 10h 59m
Length of Day
9h 55m
Waning Crescent, 1% of the Moon is Illuminated
Nov 2
Waning Crescent
Nov 3
New
Nov 9
First Quarter
Nov 17
Full
Nov 25
Last Quarter

Hourly Weather History & Observations

Time (PDT) Temp. Windchill Dew Point Humidity Pressure Visibility Wind Dir Wind Speed Gust Speed Precip Events Conditions
12:53 AM 30.0 °F 23.2 °F 26.1 °F 85% 29.89 in 10.0 mi South 6.9 mph 17.3 mph N/A   Partly Cloudy
1:53 AM 30.9 °F 23.5 °F 26.1 °F 82% 29.88 in 10.0 mi South 8.1 mph - N/A   Mostly Cloudy
2:53 AM 32.0 °F 26.4 °F 27.0 °F 82% 29.83 in 10.0 mi Variable 5.8 mph - N/A   Overcast
3:53 AM 30.9 °F 24.3 °F 28.0 °F 89% 29.75 in 10.0 mi Variable 6.9 mph - N/A   Mostly Cloudy
4:53 AM 30.9 °F 24.3 °F 28.0 °F 89% 29.74 in 10.0 mi SSE 6.9 mph - N/A   Overcast
5:53 AM 30.9 °F - 28.9 °F 92% 29.71 in 10.0 mi Calm Calm - N/A   Overcast
6:53 AM 32.0 °F 27.5 °F 28.9 °F 88% 29.67 in 10.0 mi Variable 4.6 mph - N/A   Overcast
7:53 AM 32.0 °F 26.4 °F 28.9 °F 88% 29.61 in 10.0 mi Variable 5.8 mph - 0.00 in   Overcast
8:53 AM 36.0 °F 29.6 °F 30.0 °F 79% 29.58 in 10.0 mi South 8.1 mph - 0.00 in   Overcast
9:06 AM 35.6 °F 29.2 °F 30.2 °F 81% 29.68 in 7.0 mi SSW 8.1 mph 21.9 mph 0.00 in Rain Light Rain
9:22 AM 35.6 °F 27.5 °F 32.0 °F 87% 29.67 in 8.0 mi South 11.5 mph 26.5 mph 0.00 in Rain Light Freezing Rain
9:30 AM 33.8 °F 25.3 °F 32.0 °F 93% 29.66 in 2.5 mi South 11.5 mph 24.2 mph 0.01 in Snow Light Snow
9:42 AM 33.8 °F 25.8 °F 33.8 °F 100% 29.66 in 2.5 mi South 10.4 mph 21.9 mph 0.02 in Snow Light Snow
9:51 AM 33.8 °F 26.4 °F 33.8 °F 100% 29.66 in 2.5 mi South 9.2 mph 24.2 mph 0.03 in Snow Light Snow
9:53 AM 34.0 °F 25.0 °F 33.1 °F 96% 29.56 in 2.5 mi South 12.7 mph 27.6 mph 0.03 in Snow Light Snow
10:05 AM 33.8 °F 26.4 °F 32.0 °F 93% 29.66 in 1.2 mi South 9.2 mph 24.2 mph 0.02 in Snow Light Snow
10:20 AM 33.8 °F 27.0 °F 32.0 °F 93% 29.66 in 0.2 mi South 8.1 mph 23.0 mph 0.05 in Fog , Snow Light Snow
10:28 AM 33.8 °F 27.7 °F 32.0 °F 93% 29.66 in 0.2 mi Variable 6.9 mph 19.6 mph 0.07 in Fog , Snow Light Snow
10:53 AM 33.1 °F 27.7 °F 33.1 °F 100% 29.57 in 0.2 mi SSW 5.8 mph 16.1 mph 0.11 in Fog , Snow Snow
11:05 AM 32.0 °F 24.8 °F 32.0 °F 100% 29.66 in 0.2 mi SSW 8.1 mph - 0.02 in Fog , Snow Snow
11:26 AM 32.0 °F 23.0 °F 32.0 °F 100% 29.66 in 0.2 mi SSW 11.5 mph 20.7 mph 0.04 in Fog , Snow Snow
11:53 AM 32.0 °F 25.6 °F 32.0 °F 100% 29.57 in 0.2 mi Variable 6.9 mph 20.7 mph 0.07 in Fog , Snow Snow
12:43 PM 32.0 °F 23.6 °F 30.2 °F 93% 29.65 in 0.2 mi SSW 10.4 mph 17.3 mph 0.06 in Fog , Snow Heavy Snow
12:50 PM 30.2 °F 22.6 °F 30.2 °F 100% 29.65 in 0.2 mi SSW 8.1 mph 19.6 mph 0.08 in Fog , Snow Heavy Snow
12:53 PM 30.9 °F 22.2 °F 30.9 °F 100% 29.57 in 0.2 mi SW 10.4 mph 21.9 mph 0.08 in Fog , Snow Snow
1:38 PM 30.2 °F 21.9 °F 30.2 °F 100% 29.62 in 0.5 mi SSW 9.2 mph 24.2 mph 0.03 in Fog , Snow Light Snow
1:50 PM 30.2 °F 20.2 °F 30.2 °F 100% 29.61 in 0.2 mi SSW 12.7 mph 24.2 mph 0.04 in Fog , Snow Snow
1:53 PM 30.9 °F 22.8 °F 30.9 °F 100% 29.53 in 0.2 mi SSW 9.2 mph 24.2 mph 0.05 in Fog , Snow Snow
2:53 PM 30.9 °F 19.4 °F 30.0 °F 96% 29.51 in 0.2 mi SW 17.3 mph 41.4 mph 0.09 in Fog , Snow Light Snow
3:01 PM 30.2 °F 18.9 °F 30.2 °F 100% 29.59 in 1.0 mi SW 16.1 mph 41.4 mph 0.00 in Snow Light Snow
3:05 PM 30.2 °F 20.2 °F 30.2 °F 100% 29.60 in 1.5 mi SW 12.7 mph 32.2 mph 0.00 in Snow Light Snow
3:15 PM 30.2 °F 19.3 °F 30.2 °F 100% 29.59 in 0.8 mi SSW 15.0 mph 32.2 mph 0.01 in Snow Light Snow
3:25 PM 30.2 °F 20.2 °F 30.2 °F 100% 29.60 in 0.2 mi SW 12.7 mph 34.5 mph 0.03 in Fog , Snow Light Snow
3:31 PM 30.2 °F 20.2 °F 30.2 °F 100% 29.59 in 1.0 mi SSW 12.7 mph 34.5 mph 0.03 in Snow Light Snow
3:34 PM 30.2 °F 20.8 °F 30.2 °F 100% 29.58 in 2.5 mi SSW 11.5 mph 27.6 mph 0.03 in Snow Light Snow
3:40 PM 30.2 °F 21.3 °F 30.2 °F 100% 29.60 in 0.8 mi SSW 10.4 mph 23.0 mph 0.04 in Snow Light Snow
3:45 PM 30.2 °F 18.1 °F 30.2 °F 100% 29.58 in 0.2 mi SSW 18.4 mph 40.3 mph 0.05 in Fog , Snow Snow
3:53 PM 30.9 °F 19.8 °F 30.0 °F 96% 29.52 in 0.5 mi SW 16.1 mph 36.8 mph 0.05 in Fog , Snow Light Snow
3:55 PM 30.2 °F 19.8 °F 30.2 °F 100% 29.60 in 1.5 mi SW 13.8 mph 36.8 mph 0.00 in Snow Light Snow
3:58 PM 30.2 °F 19.3 °F 30.2 °F 100% 29.60 in 3.0 mi SSW 15.0 mph 33.4 mph 0.00 in Snow Light Snow
4:05 PM 30.2 °F 19.8 °F 30.2 °F 100% 29.60 in 1.8 mi SW 13.8 mph 29.9 mph 0.00 in Snow Light Snow
4:14 PM 30.2 °F 19.3 °F 30.2 °F 100% 29.61 in 3.0 mi SW 15.0 mph 34.5 mph 0.00 in Snow Light Snow
4:37 PM 30.2 °F 20.2 °F 28.4 °F 93% 29.63 in 8.0 mi SW 12.7 mph 26.5 mph 0.00 in   Overcast
4:53 PM 28.9 °F 18.2 °F 27.0 °F 92% 29.55 in 10.0 mi West 13.8 mph 32.2 mph 0.00 in   Overcast
5:19 PM 28.4 °F 18.5 °F 26.6 °F 93% 29.63 in 10.0 mi SW 11.5 mph 25.3 mph 0.00 in   Overcast
5:53 PM 28.9 °F 19.8 °F 27.0 °F 92% 29.56 in 6.0 mi WSW 10.4 mph 28.8 mph 0.00 in Snow Light Snow
6:03 PM 28.4 °F 17.5 °F 26.6 °F 93% 29.63 in 2.5 mi SW 13.8 mph 25.3 mph 0.01 in Snow Light Snow
6:07 PM 28.4 °F 18.0 °F 26.6 °F 93% 29.64 in 1.8 mi SW 12.7 mph 25.3 mph 0.01 in Snow Light Snow
6:17 PM 28.4 °F 15.8 °F 26.6 °F 93% 29.65 in 1.8 mi WSW 18.4 mph 31.1 mph 0.02 in Snow Light Snow
6:21 PM 28.4 °F 18.0 °F 26.6 °F 93% 29.65 in 3.0 mi SW 12.7 mph 31.1 mph 0.02 in Snow Light Snow
6:53 PM 27.0 °F 15.2 °F 25.0 °F 92% 29.57 in 6.0 mi SW 15.0 mph 26.5 mph 0.02 in Snow Light Snow
7:16 PM 26.6 °F 17.5 °F 24.8 °F 93% 29.65 in 8.0 mi SW 9.2 mph 28.8 mph 0.00 in Snow Light Snow
7:26 PM 26.6 °F 13.8 °F 24.8 °F 93% 29.65 in 7.0 mi SW 17.3 mph 28.8 mph 0.00 in Snow Light Snow
7:53 PM 26.1 °F 15.6 °F 24.1 °F 92% 29.71 in 3.0 mi SSW 11.5 mph 32.2 mph 0.00 in Snow Light Snow
8:22 PM 26.6 °F 15.7 °F 24.8 °F 93% 29.64 in 2.0 mi SW 12.7 mph 28.8 mph 0.01 in Snow Light Snow
8:29 PM 26.6 °F 15.7 °F 23.0 °F 86% 29.64 in 1.5 mi SSW 12.7 mph 26.5 mph 0.01 in Snow Light Snow
8:34 PM 24.8 °F 14.0 °F 24.8 °F 100% 29.64 in 0.8 mi SSW 11.5 mph 26.5 mph 0.02 in Snow Light Snow
8:53 PM 25.0 °F 13.6 °F 24.1 °F 96% 29.56 in 0.8 mi SSW 12.7 mph 28.8 mph 0.03 in Snow Light Snow
9:21 PM 24.8 °F 14.0 °F 23.0 °F 93% 29.64 in 0.5 mi SSW 11.5 mph 28.8 mph 0.01 in Fog , Snow Snow
9:30 PM 24.8 °F 13.4 °F 24.8 °F 100% 29.65 in 0.2 mi SW 12.7 mph 21.9 mph 0.02 in Fog , Snow Snow
9:53 PM 24.1 °F 15.2 °F 23.0 °F 96% 29.72 in 0.5 mi SW 8.1 mph 20.7 mph 0.05 in Fog , Snow Snow
10:53 PM 24.1 °F 15.2 °F 23.0 °F 96% 29.73 in 0.2 mi SSW 8.1 mph 18.4 mph 0.07 in Fog , Snow Heavy Snow
11:53 PM 23.0 °F 17.0 °F 23.0 °F 100% 29.74 in 0.2 mi Variable 4.6 mph 21.9 mph 0.07 in Fog , Snow Snow